Regional Weather Roundup
Issued by NWS

Home | Current Version | Previous Version | Text Only | Print | Product List | Glossary On
Versions: 1 2 3 4 5 6 7 8 9 10 11 12 13 14 15 16 17 18 19 20 21 22 23 24 25 26 27 28 29 30 31 32 33 34 35 36 37 38 39 40 41 42 43 44 45 46 47 48 49 50
000
ASUS43 KMPX 242110
RWRMN
WEATHER ROUNDUP FOR MINNESOTA
NATIONAL WEATHER SERVICE TWIN CITIES/CHANHASSEN MN
400 PM CDT SAT SEP 24 2016


NOTE: "FAIR" INDICATES FEW OR NO CLOUDS BELOW 12,000 FEET WITH NO
SIGNIFICANT WEATHER AND/OR OBSTRUCTIONS TO VISIBILITY. N/A MEANS
CURRENT SKY AND/OR WEATHER CONDITIONS ARE NOT AVAILABLE.

MNZ060>063-068>070-242200-
   Twin Cities Metro

CITY           SKY/WX    TMP DP  RH WIND       PRES   REMARKS
TWIN CITIES    CLOUDY    71  64  78 SE20G25   30.00F
ST PAUL        CLOUDY    69  63  81 SE18G26   30.01F
CRYSTAL        CLOUDY    69  62  78 E9G21     29.98F
BLAINE         CLOUDY    70  66  88 SE14G22   30.00F
LAKEVILLE      CLOUDY    72  64  78 E17       29.99F
EDEN PRAIRIE   MOSUNNY   74  64  71 E18G24    29.96F
LAKEVILLE      CLOUDY    72  64  78 E17       29.99F
SOUTH ST PAUL  CLOUDY    69  64  85 SE10      30.01F
LAKE ELMO      CLOUDY    68  63  83 SE9       30.04F
$$
MNZ001>005-007-008-013>017-022>024-027-028-242200-
   Northwest Minnesota

CITY           SKY/WX    TMP DP  RH WIND       PRES   REMARKS
BEMIDJI        CLOUDY    64  60  87 SE15      29.95F
HALLOCK        MOSUNNY   77  68  73 SE16G22   29.79F
ROSEAU         MOSUNNY   70  63  78 SE16      29.89F
WARROAD        PTSUNNY   70  64  83 SE14      29.91F
THIEF RVR FALL MOSUNNY   73  64  73 SE16G25   29.86F
CROOKSTON      CLOUDY    77  66  69 SE22G30   29.81F
FOSSTON        CLOUDY    70  61  73 SE18      29.88F
DETROIT LAKES  CLOUDY    68  63  83 SE17G23   29.90S
MOORHEAD       CLOUDY    77  64  65 SE18G26   29.81F
PARK RAPIDS    CLOUDY    67  60  78 SE17G23   29.93F
MAHNOMEN       FAIR      70  63  76 SE13G24   29.87F
$$
MNZ006-009>011-018-025>026-242200-
   North Central Minnesota

CITY           SKY/WX    TMP DP  RH WIND       PRES   REMARKS
BAUDETTE       PTSUNNY   67  60  78 SE13      29.94F
FLAG ISLAND    CLOUDY    63  61  94 SE8       29.92F
INTL FALLS     CLOUDY    66  60  81 SE12G20   30.00F
WASKISH        PTSUNNY   66  61  82 SE10      29.96F
BIG FORK       CLOUDY    64  59  82 SE6       30.01F
GRAND RAPIDS   CLOUDY    63  60  90 SE10      30.04S
CRANE LAKE     CLOUDY    64  59  82 SE5       30.06F
ORR            CLOUDY    64  57  77 SE7G17    30.02S
COOK           CLOUDY    63  57  82 SE9       30.05F
WALKER         CLOUDY    64  60  88 SE8       29.96S
$$
MNZ012-019>021-037-242200-
   Northeast Minnesota

CITY           SKY/WX    TMP DP  RH WIND       PRES   REMARKS
DULUTH         CLOUDY    62  59  90 E12       30.07F
ELY            CLOUDY    63  55  77 SE10      30.08F
HIBBING        CLOUDY    61  58  90 SE12      30.05S
EVELETH        CLOUDY    62  58  87 SE7       30.08S
DULUTH HARBOR  CLOUDY    61  57  88 NE16      30.07F
TWO HARBORS    CLOUDY    63  57  82 NE8       30.08F
SILVER BAY     CLOUDY    59  55  88 NE5       30.10F
GRAND MARAIS     N/A     61  56  83 NE13      30.14F
G MARAIS ARPRT CLOUDY    59  52  77 SE8       30.17F
$$
MNZ029>031-032-039>041-046>048-054>057-064-242200-
   West Central Minnesota

CITY           SKY/WX    TMP DP  RH WIND       PRES   REMARKS
FERGUS FALLS   CLOUDY    75  64  69 SE16G25   29.85F
WHEATON        MOSUNNY   81  70  69 SE21G26   29.81F
MORRIS         MOSUNNY   81  66  61 SE17G25   29.83F
ALEXANDRIA     MOSUNNY   73  66  78 SE16G29   29.91F
ELBOW LAKE     FAIR      75  66  75 SE17G23   29.84F
GLENWOOD       MOSUNNY   75  66  73 E17       29.91R
APPLETON       PTSUNNY   81  66  61 SE12      29.83S
BENSON         MOSUNNY   79  64  61 S17G25    29.85F
ORTONVILLE     PTSUNNY   81  66  61 S8G20     29.81F
MADISON        RAIN      81  70  69 SE16G24   29.83S
WILLMAR        FAIR      79  66  65 SE17G24   29.91R
$$
MNZ033>034-036-042>043-049>051-058-059-242200-
   Central Minnesota

CITY           SKY/WX    TMP DP  RH WIND       PRES   REMARKS
ST CLOUD       CLOUDY    68  65  90 E15G21    29.96F
SAUK CENTRE    CLOUDY    69  65  86 E13       29.92F
PAYNESVILLE    MOSUNNY   74  68  80 E20       29.92F
AITKIN         CLOUDY    68  59  73 SE8       29.98F
PINE RIVER     CLOUDY    64  63  94 SE9G16    30.01S FOG
BRAINERD       CLOUDY    65  62  90 SE10      29.98F FOG
STAPLES        CLOUDY    64  63  94 SE8       29.94F
LONG PRAIRIE   CLOUDY    64  63  94 E9G18     29.93F FOG
LITTLE FALLS   CLOUDY    66  61  82 SE10G16   29.95
LITCHFIELD     SUNNY     81  70  69 SE20G26   29.92F
BUFFALO        PTSUNNY   73  64  73 E16       29.97F
MAPLE LAKE     CLOUDY    74  67  78 E12       29.97F
HUTCHINSON     MOSUNNY   80  68  67 E18G25    29.93F
$$
MNZ037-044-045-052-053-242200-
   East Central Minnesota

CITY           SKY/WX    TMP DP  RH WIND       PRES   REMARKS
PRINCETON      CLOUDY    70  64  83 E10G17    29.99F
MORA           CLOUDY    64  61  88 SE8       30.03F
CAMBRIDGE      CLOUDY    70  61  73 SE9       29.99F
MOOSE LAKE     CLOUDY    64  59  82 SE6       30.02F
HINCKLEY       CLOUDY    66  63  88 SE8       30.03F
CLOQUET        CLOUDY    61  55  82 E10       30.06F
MCGREGOR       CLOUDY    64  61  88 SE8G16    30.02F
$$
MNZ071>073-080-081-089-090-097-098-242200-
   Southwest Minnesota

CITY           SKY/WX    TMP DP  RH WIND       PRES   REMARKS
MONTEVIDEO     CLOUDY    79  66  65 S13       29.87R
GRANITE FALLS  CLOUDY    82  69  62 E14       29.87S HAZE
CANBY          CLOUDY    73  69  85 SE17G25   29.85R
MARSHALL       TSTM      70  66  88 SW32G47   29.89R FOG
REDWOOD FALLS  PTSUNNY   82  66  58 SE21G29   29.88F
OLIVIA         PTSUNNY   81  64  57 SE17      29.89S
PIPESTONE      TSTM      64  63  94 SW12      29.91R
WINDOM         CLOUDY    82  66  57 SE17G31   29.90R
WORTHINGTON    PTSUNNY   82  68  62 S20G28    29.90R
JACKSON        PTSUNNY   82  64  54 SE16G25   29.92S
TRACY          CLOUDY    81  69  68 SE13G26   29.87R
SLAYTON        CLOUDY    66  63  88 SW35G53   29.95R
$$
MNZ065>067-074>077-082>085-091>093-242200-
   South Central Minnesota

CITY           SKY/WX    TMP DP  RH WIND       PRES   REMARKS
NEW ULM        MOSUNNY   82  66  57 SE13G20   29.91F
ST JAMES       MOSUNNY   82  66  57 SE16G26   29.92R
FAIRMONT       PTSUNNY   82  68  62 SE20G29   29.92S
GLENCOE        SUNNY     82  69  66 E20G25    29.93F
FARIBAULT      SUNNY     79  66  65 E10G20    29.99F
OWATONNA       SUNNY     79  64  61 SE17      29.98F
WASECA         SUNNY     79  66  65 SE16G23   29.97F
ALBERT LEA     SUNNY     81  64  57 SE20G25   29.97F
$$
MNZ078>079-086>088-094>096-242200-
   Southeast Minnesota

CITY           SKY/WX    TMP DP  RH WIND       PRES   REMARKS
ROCHESTER      CLOUDY    70  66  87 E15       30.04F
RED WING       CLOUDY    68  63  83 SE12G18   30.03F
STANTON        MOSUNNY   73  64  73 SE13G21   29.99F
DODGE CENTER   MOSUNNY   75  64  69 SE17      30.03F
WINONA         CLOUDY    70  63  78 SE14G20   30.07F
AUSTIN         SUNNY     77  66  69 SE10G17   30.00F
PRESTON        CLOUDY    67  62  83 SE12      30.06F
$$
ABBREVIATIONS USED IN REMARKS
   TC - TEMPERATURES IN CELSIUS
  WCI - WIND CHILL INDEX
   HX - HEAT INDEX
  VSB - VISIBILITY
$$




USA.gov is the U.S. government's official web portal to all federal, state and local government web resources and services.